Regional Weather Roundup
Issued by NWS

Home | Current Version | Previous Version | Text Only | Print | Product List | Glossary Off
Versions: 1 2 3 4 5 6 7 8 9 10 11 12 13 14 15 16 17 18 19 20 21 22 23 24 25 26 27 28 29 30 31 32 33 34 35 36 37 38 39 40 41 42 43 44 45 46 47 48 49 50

000
ASUS45 KBOU 200007
RWRCO

WEATHER ROUNDUP FOR COLORADO
NATIONAL WEATHER SERVICE DENVER/BOULDER CO
600 PM MDT FRI SEP 19 2014

NOTE: "FAIR" INDICATES FEW OR NO CLOUDS BELOW 12000 FEET WITH NO
SIGNIFICANT WEATHER AND/OR OBSTRUCTIONS TO VISIBILITY.

COZ001>005-013-030-031-200100-
...NORTHWEST COLORADO...

CITY           SKY/WX    TMP DP  RH WIND       PRES   REMARKS
CRAIG          MOSUNNY   77  43  29 NW10      30.09R
HAYDEN         MOSUNNY   75  43  31 N10       30.11R
MEEKER         NOT AVBL
MOUNT WERNER   NOT AVBL
STEAMBOAT SPGS MOSUNNY   75  41  29 W10       30.13R
WALDEN         MOSUNNY   70  36  28 W14       30.21S
$$

COZ006>008-011-200100-
...WEST CENTRAL VALLEYS...

CITY           SKY/WX    TMP DP  RH WIND       PRES   REMARKS
GRAND JUNCTION MOSUNNY   86  40  19 W9        29.96S
MONTROSE       MOSUNNY   82  44  26 N6        30.04S
EAGLE          MOSUNNY   82  39  21 W12       30.10R
RIFLE          MOSUNNY   83  42  23 W9        30.01R
DELTA          MOSUNNY   90  39  16 NW18      29.98S
NUCLA          MOSUNNY   82  41  23 W8        30.09S
$$

COZ017>023-064>068-200100-
...SOUTHWEST COLORADO...

CITY           SKY/WX    TMP DP  RH WIND       PRES   REMARKS
DURANGO        SUNNY     82  41  23 W16G23    30.07R
CORTEZ         CLOUDY    84  43  23 W10       30.04S
PAGOSA SPRINGS SUNNY     80  33  18 SW8       30.15R
TELLURIDE      NOT AVBL
WOLF CREEK PAS CLOUDY    54  32  43 S3        30.49S
$$

COZ009-010-012-014-032>034-037-058>063-200100-
...CENTRAL COLORADO...

CITY           SKY/WX    TMP DP  RH WIND       PRES   REMARKS
ASPEN          MOSUNNY   76  40  27 N8        30.18R
BUENA VISTA    PTSUNNY   72  33  23 S20G29    30.18S
COPPER MTN     MOSUNNY   59  27  29 W20       30.53R
BERTHOUD PASS  FAIR      50  48  93 NW21G32   30.56S
COTTONWOOD PAS PTSUNNY   68  27  21 W7        30.34S
GUNNISON       SUNNY     75  37  25 SW7       30.17S
KREMMLING      PTSUNNY   73  32  21 NW10      30.17R
LEADVILLE      MOSUNNY   69  30  23 MISG      30.32R
MONARCH PASS   PTSUNNY   61  30  31 W15G25    30.61R
SALIDA         PTSUNNY   75  34  22 NW7       30.23R
SUNLIGHT       MOSUNNY   63  37  39 CALM      30.46R
WILKERSON PASS NOT AVBL
$$

COZ069>075-200100-
...SAN LUIS VALLEY/SANGRE DE CRISTO MOUNTAINS...

CITY           SKY/WX    TMP DP  RH WIND       PRES   REMARKS
ALAMOSA        SUNNY     80  27  14 CALM      30.11S
LA VETA PASS   PTSUNNY   61  30  31 NE9G16    30.36R
SAGUACHE       NOT AVBL
$$

COZ035-036-038>040-200100-
...NORTHERN COLORADO FRONT RANGE...

CITY           SKY/WX    TMP DP  RH WIND       PRES   REMARKS
DENVER INTL AP MOSUNNY   84  44  24 SE8       29.97R
DMNS CITY PARK   N/A     83  43  23 E3        29.96S
AURORA         PTSUNNY   80  43  26 E7        30.00R
FRONT RANGE AP NOT AVBL
ERIE MUNI ARPT MOSUNNY   87  35  16 S3        29.95R
BOULDER MUN AP MOSUNNY   82  39  21 CALM      29.96S
CENTENNIAL     MOSUNNY   80  40  23 SE7       30.00S
BROOMFIELD     PTSUNNY   84  39  20 CALM      30.00
FORT COLLINS   SUNNY     79  54  41 W7        29.93R
LONGMONT       SUNNY     87  48  25 N5        29.96R
$$

COZ041-046-047-076>085-087-088-200100-
...PIKES PEAK/PALMER DIVIDE AND SOUTHERN FOOTHILLS...

CITY           SKY/WX    TMP DP  RH WIND       PRES   REMARKS
COLO. SPRINGS  MOSUNNY   82  34  17 E6        30.04S
A. F. ACADEMY  MOSUNNY   80  35  20 E8        30.07R
ELLICOTT       NOT AVBL
FALCON         MOSUNNY   78  35  21 E6        30.11S
FORT CARSON    MOSUNNY   83  44  24 VRB5      30.01R
LIMON          SUNNY     84  36  18 NE8       29.97S
MONUMENT HILL  MOSUNNY   73  36  25 E9        30.12R
TRINIDAD       SUNNY     84  37  18 E5        30.00R
$$

COZ042>045-048>051-090-091-200100-
...NORTHEAST COLORADO...

CITY           SKY/WX    TMP DP  RH WIND       PRES   REMARKS
GREELEY ARPT   MOSUNNY   86  46  25 W5        29.93R
AKRON          CLEAR     85  44  23 E8        29.91S
BURLINGTON     CLEAR     85  54  34 S17       29.90S
WRAY           CLEAR     89  46  22 SE9       29.85S
STERLING       CLEAR     84  54  34 N7        29.88R THUNDER
HOLYOKE        CLEAR     84  52  32 E3        29.86R
FORT MORGAN    SUNNY     85  45  24 NE6       29.93R
$$

COZ086-089-092>099-200100-
...SOUTHEAST COLORADO...

CITY           SKY/WX    TMP DP  RH WIND       PRES   REMARKS
PUEBLO         SUNNY     88  40  18 SE10      29.91S
LA JUNTA       SUNNY     90  36  14 CALM      29.88S
LAMAR          CLEAR     87  56  34 S18G25    29.85R
SPRINGFIELD      N/A     78  58  49 S23       29.96R
$$


USA.gov is the U.S. government's official web portal to all federal, state and local government web resources and services.